Location: Newark
(49.8348°N, 24.0280°E)
Time: 15:21:27
(UTC+00:00)

Transit 2A - Pass Details

Date: 29 January 2020
Orbit: 599 x 959 km, 66.7° (Epoch: 25 February)

Event Time Altitude Azimuth Distance (km) Brightness Sun altitude
Rises 20:48:01 0° 296° (WNW) 2,855 - -51.3°
Reaches altitude 10° 20:52:34 10° 340° (NNW) 1,984 - -51.8°
Maximum altitude 20:53:11 10° 349° (NNW) 1,974 - -51.9°
Drops below altitude 10° 20:53:49 10° 357° (N) 1,998 - -51.9°
Sets 20:58:33 0° 40° (NE) 2,982 - -52.5°
